Peoria, IL

1:27 AM CST on December 18, 2017 (GMT -0600)
Greater Peoria Regional

Weather History for KPIA - November, 2013

Change the Weather History Date:

Monday, November 11, 2013

  Actual Average Record
Temperature  
Mean Temperature 39 °F 44 °F  
Max Temperature 52 °F 53 °F 77 °F (1911)
Min Temperature 25 °F 35 °F 13 °F (1995)
Degree Days  
Heating Degree Days 26 21  
Month to date heating degree days 222 206  
Since 1 July heating degree days 600 652  
Cooling Degree Days 0 0  
Month to date cooling degree days 0 0  
Year to date cooling degree days 1174 1039  
Moisture  
Dew Point 31 °F    
Average Humidity 73    
Maximum Humidity 92    
Minimum Humidity 54    
Precipitation  
Precipitation 0.16 in 0.10 in 1.47 in (1982)
Month to date precipitation 1.22 1.13  
Year to date precipitation 40.03 32.07  
Snow  
Snow 0.50 in 0.00 in 3.00 in (1921)
Month to date snowfall 0.5 0.1  
Since 1 July snowfall 0.5 0.1  
Since 1 September snowfall 0.5 0.1  
Snow Depth 0.00 in    
Sea Level Pressure  
Sea Level Pressure 30.29 in    
Wind  
Wind Speed 9 mph (North)    
Max Wind Speed 17 mph    
Max Gust Speed 27 mph    
Visibility 6 miles    
Events Rain , Snow    
T = Trace of Precipitation, MM = Missing Value Source: NWS Daily Summary

Daily Weather History Graph

Daily Weather History Graph

Search for Another Location

Airport or City:

Trip Planner

Search our weather history database for the weather conditions in past years. The results will help you decide how hot, cold, wet, or windy it might be!

Date:

Astronomy

Nov. 11, 2013 Rise Set
Actual Time 6:41 AM CST 4:44 PM CST
Civil Twilight 6:11 AM CST 5:13 PM CST
Nautical Twilight 5:39 AM CST 5:46 PM CST
Astronomical Twilight 5:06 AM CST 6:18 PM CST
Moon 1:26 PM CST (11/11) 12:24 AM CST (11/11)
Length of Visible Light 11h 01m
Length of Day
10h 03m
Waxing Gibbous, 66% of the Moon is Illuminated
Nov 11
Waxing Gibbous
Nov 17
Full
Nov 25
Last Quarter
Dec 2
New
Dec 9
First Quarter

Hourly Weather History & Observations

Time (CST) Temp. Windchill Dew Point Humidity Pressure Visibility Wind Dir Wind Speed Gust Speed Precip Events Conditions
12:54 AM 41.0 °F 37.1 °F 32.0 °F 70% 30.25 in 10.0 mi South 5.8 mph - N/A   Overcast
1:54 AM 42.1 °F 38.4 °F 32.0 °F 67% 30.23 in 10.0 mi SSW 5.8 mph - 0.00 in Rain Light Rain
2:54 AM 43.0 °F 38.8 °F 33.1 °F 68% 30.21 in 10.0 mi SSW 6.9 mph - 0.00 in   Overcast
3:54 AM 43.0 °F 38.2 °F 33.1 °F 68% 30.19 in 10.0 mi SSW 8.1 mph - N/A   Overcast
4:54 AM 44.1 °F 39.0 °F 33.1 °F 65% 30.16 in 10.0 mi SSW 9.2 mph - N/A   Overcast
5:54 AM 45.0 °F 40.1 °F 34.0 °F 65% 30.16 in 10.0 mi SSW 9.2 mph - N/A   Overcast
6:54 AM 43.0 °F 37.7 °F 34.0 °F 71% 30.15 in 10.0 mi South 9.2 mph - N/A   Mostly Cloudy
7:54 AM 45.0 °F 40.6 °F 35.1 °F 68% 30.16 in 10.0 mi SSW 8.1 mph - N/A   Mostly Cloudy
8:54 AM 46.9 °F - 34.0 °F 61% 30.15 in 10.0 mi SW 5.8 mph - N/A   Overcast
9:54 AM 50.0 °F - 35.1 °F 57% 30.16 in 10.0 mi West 3.5 mph - N/A   Overcast
10:54 AM 52.0 °F - 36.0 °F 54% 30.15 in 10.0 mi WNW 6.9 mph - N/A   Overcast
11:54 AM 51.1 °F - 35.1 °F 54% 30.16 in 10.0 mi NW 5.8 mph - N/A   Overcast
12:54 PM 46.9 °F - 36.0 °F 66% 30.18 in 9.0 mi North 8.1 mph 20.7 mph 0.00 in Rain Light Rain
1:54 PM 43.0 °F 38.2 °F 37.9 °F 82% 30.21 in 5.0 mi North 8.1 mph 18.4 mph 0.00 in Rain Light Rain
2:02 PM 42.1 °F 36.6 °F 39.0 °F 89% 30.20 in 5.0 mi North 9.2 mph - 0.00 in   Overcast
2:12 PM 42.1 °F 37.1 °F 39.0 °F 89% 30.20 in 2.5 mi North 8.1 mph - 0.00 in Rain Light Rain
2:19 PM 42.1 °F 36.6 °F 37.9 °F 85% 30.20 in 2.5 mi North 9.2 mph - 0.00 in Rain Light Rain
2:28 PM 41.0 °F 34.7 °F 37.9 °F 89% 30.20 in 3.0 mi North 10.4 mph 18.4 mph 0.00 in Rain Light Rain
2:38 PM 41.0 °F 34.3 °F 37.9 °F 89% 30.22 in 3.0 mi North 11.5 mph 24.2 mph 0.01 in Rain Light Rain
2:54 PM 39.9 °F 32.5 °F 36.0 °F 86% 30.24 in 3.0 mi North 12.7 mph 19.6 mph 0.01 in Rain Light Rain
3:54 PM 37.0 °F 28.9 °F 33.1 °F 86% 30.28 in 9.0 mi North 12.7 mph 20.7 mph 0.01 in Rain Light Rain
4:02 PM 37.0 °F 28.9 °F 33.1 °F 86% 30.27 in 10.0 mi North 12.7 mph 20.7 mph 0.00 in Rain Light Rain
4:15 PM 36.0 °F 28.5 °F 33.1 °F 89% 30.28 in 9.0 mi North 10.4 mph 20.7 mph 0.01 in Rain Light Rain
4:35 PM 34.0 °F 28.0 °F 32.0 °F 92% 30.30 in 1.8 mi North 6.9 mph 17.3 mph 0.02 in Snow Light Snow
4:45 PM 34.0 °F 25.5 °F 32.0 °F 92% 30.31 in 3.0 mi North 11.5 mph 17.3 mph 0.03 in Snow Light Snow
4:54 PM 34.0 °F 25.5 °F 32.0 °F 92% 30.33 in 3.0 mi North 11.5 mph 19.6 mph 0.03 in Snow Light Snow
5:02 PM 34.0 °F 25.5 °F 30.9 °F 89% 30.31 in 2.5 mi North 11.5 mph 21.9 mph 0.00 in Snow Light Snow
5:15 PM 33.1 °F 25.5 °F 30.9 °F 92% 30.32 in 1.2 mi North 9.2 mph - 0.02 in Snow Light Snow
5:23 PM 33.1 °F 24.9 °F 30.9 °F 92% 30.32 in 2.0 mi North 10.4 mph - 0.02 in Snow Light Snow
5:32 PM 34.0 °F 26.6 °F 30.9 °F 89% 30.33 in 4.0 mi North 9.2 mph 19.6 mph 0.02 in Snow Light Snow
5:47 PM 33.1 °F 23.9 °F 30.9 °F 92% 30.34 in 1.8 mi North 12.7 mph 20.7 mph 0.03 in Snow Light Snow
5:54 PM 33.1 °F 23.9 °F 30.0 °F 89% 30.36 in 1.0 mi North 12.7 mph 20.7 mph 0.04 in Snow Light Snow
6:03 PM 33.1 °F 24.4 °F 30.9 °F 92% 30.35 in 0.8 mi North 11.5 mph 18.4 mph 0.01 in Snow Light Snow
6:35 PM 32.0 °F 23.0 °F 30.0 °F 92% 30.37 in 1.0 mi North 11.5 mph 16.1 mph 0.03 in Snow Light Snow
6:45 PM 32.0 °F 23.0 °F 28.9 °F 88% 30.38 in 0.8 mi North 11.5 mph 21.9 mph 0.04 in Snow Light Snow
6:54 PM 30.9 °F 22.8 °F 28.9 °F 92% 30.40 in 0.8 mi North 9.2 mph 19.6 mph 0.05 in Snow Light Snow
7:18 PM 30.0 °F 20.5 °F 27.0 °F 88% 30.40 in 1.5 mi NNE 11.5 mph 24.2 mph 0.02 in Snow Light Snow
7:21 PM 30.0 °F 21.7 °F 26.1 °F 85% 30.40 in 3.0 mi NNE 9.2 mph 20.7 mph 0.02 in Snow Light Snow
7:54 PM 30.0 °F 21.1 °F 25.0 °F 82% 30.44 in 10.0 mi North 10.4 mph 17.3 mph 0.02 in   Overcast
8:29 PM 30.0 °F 19.5 °F 23.0 °F 75% 30.44 in 10.0 mi North 13.8 mph 24.2 mph N/A   Mostly Cloudy
8:54 PM 28.9 °F 20.4 °F 21.9 °F 75% 30.48 in 10.0 mi North 9.2 mph 18.4 mph N/A   Scattered Clouds
9:54 PM 28.0 °F 20.8 °F 21.9 °F 78% 30.51 in 10.0 mi North 6.9 mph 21.9 mph N/A   Clear
10:54 PM 27.0 °F 18.0 °F 19.9 °F 75% 30.55 in 10.0 mi North 9.2 mph 17.3 mph N/A   Clear
11:54 PM 25.0 °F 14.8 °F 17.1 °F 72% 30.57 in 10.0 mi North 10.4 mph 19.6 mph N/A   Clear